This is the latest recevied weather packets stored in our database for station/object 9W8AKN-13. If no packets are shown the sender has not sent any weather packets the latest 10 day(s).
| Time | Temp. | Humidity | Pressure | Rain* | Wind** | Luminosity | Snow |
|---|---|---|---|---|---|---|---|
| 1787896343 | 30.56° C | 62% | 1010.6 hPa | - | - | - | - |
| 1787895443 | 30° C | 63% | 1010.9 hPa | - | - | - | - |
| 1787894543 | 30° C | 65% | 1011.2 hPa | - | - | - | - |
| 1787893643 | 30° C | 64% | 1011.4 hPa | - | - | - | - |
| 1787892743 | 30° C | 66% | 1011.6 hPa | - | - | - | - |
| 1787891843 | 29.44° C | 68% | 1011.9 hPa | - | - | - | - |
| 1787890943 | 29.44° C | 72% | 1012.2 hPa | - | - | - | - |
| 1787890043 | 29.44° C | 76% | 1012.7 hPa | - | - | - | - |
| 1787889142 | 29.44° C | 80% | 1013 hPa | - | - | - | - |
| 1787888242 | 29.44° C | 75% | 1013.2 hPa | - | - | - | - |
| 1787887342 | 29.44° C | 75% | 1013.4 hPa | - | - | - | - |
| 1787885543 | 28.89° C | 75% | 1013.7 hPa | - | - | - | - |
| 1787884643 | 28.89° C | 74% | 1013.7 hPa | - | - | - | - |
| 1787883743 | 28.89° C | 70% | 1013.9 hPa | - | - | - | - |
| 1787882843 | 28.33° C | 69% | 1013.6 hPa | - | - | - | - |
| 1787881943 | 28.33° C | 71% | 1013.6 hPa | - | - | - | - |
| 1787881043 | 28.33° C | 72% | 1013.4 hPa | - | - | - | - |
| 1787880143 | 28.33° C | 75% | 1013.3 hPa | - | - | - | - |
| 1787879243 | 27.78° C | 76% | 1013.2 hPa | - | - | - | - |
| 1787878343 | 27.78° C | 75% | 1013.2 hPa | - | - | - | - |
| 1787877442 | 27.78° C | 74% | 1013.2 hPa | - | - | - | - |
| 1787876542 | 27.78° C | 71% | 1013.2 hPa | - | - | - | - |
| 1787875642 | 27.22° C | 79% | 1013.2 hPa | - | - | - | - |
| 1787874742 | 27.22° C | 78% | 1013 hPa | - | - | - | - |
| 1787873842 | 27.22° C | 77% | 1013 hPa | - | - | - | - |
* Rain since midnight (hover to see other rain measurements)
** Current wind speed in m/s (hover to see current wind gust speed)